STARLINK-11254, 60731

Orbit data source: Space-Track

STARLINK-11254, 60731 is a payload satellite owned by SpaceX/Seattle (US) in LEO that was launched on Wed, 28 Aug 2024 UTC via an FALCON 9 launch vehicle from the Air Force Eastern Test Range (AFETR). Payload-class satellites include a variety of spacecraft equipped with specific instruments for various scientific and technological missions. These include communications satellites like Starlink; space stations such as the ISS; scientific satellites like the Hubble; Earth observation satellites from companies like Planet Labs, Umbra, and HawkEye 360; GPS; miniature CubeSats for education and research; and military/defense satellites.

Loading next visibility...
Identifier
60731, 2024-152M
Orbit
LEO
Country
Flag of USUS
Related business
Manufacturer
SpaceX/Seattle
Mission
Operational Commercial Communications
Bus & Motor
STARLINK V2MD, Unknown motor
Mass
960 kg wet, ~910 kg dry
Launch date (UTC)
2024-08-28 (2 years ago)
Launch vehicle
FALCON 9
Launch site
Air Force Eastern Test Range (AFETR)
Object type
Payload
Rocket body
Debris
Shape & HBR
Box + 2 Pan, 18.1 m
Radar Cross Section
36.964 m², Large (>1 m²)

Expand to show TLE details & history
Last TLE update: 20 hours ago

TLE from 20 hours ago
0 STARLINK-11254
1 60731U 24152M   26174.66352163  .00000616  00000-0  99423-5 0  9998
2 60731  53.1586 313.5336 0001028  83.0119 277.1016 15.69704703105499
Epoch: 2026-06-23T15:55Z
TLE epoch observation values (Epoch: 2026-06-23T15:55:28.268Z)
Latitude
-0.00002°
Longitude
162.83395°
Altitude
360.571 km
Speed
7.694 km/s
True Right ascension
20h 54m 08s
True Declination
0° 00' 00"
Sunlit
Object was in full shadow at epoch
Visualization orbit readout
Latitude
Unknown
Longitude
Unknown
Altitude
Unknown
Speed
Unknown
Apparent Right ascension
Unknown
Apparent Declination
Unknown
Sunlit
N/A
Visualization observer readout
Local Sidereal Time
22:59:50
Azimuth
Unknown
Elevation
Unknown
Doppler factor
Unknown
Orbital elements
Apogee altitude
360.696 km
Perigee altitude
359.31 km
Semi-major axis
6,738.14 km
Eccentricity
0.0001
Inclination
53.1586°
RAAN
313.5336°
Arg. of periapsis
83.0119°
True anomaly
277.08991°
Mean anomaly
277.1016°
Eccentric anomaly
277.09576°
Mean motion
3.92404 °/min
Orbital period
91.74 mins
BSTAR
0.0000099423
Loading maneuver chart data...
Computing Atmospheric mass density...
Loading historical data...
Loading historical data...
Loading historical data...
Loading historical data...
Loading historical data...
Loading historical data...
Loading historical data...

Documentation

Showing up to 5 results
|